sat.trackr.live / text

‹ back to catalog

ICEYE-X6

NORAD 46497 · 2020-068M

PAYLOAD ACTIVE UNKNOWN

§ Identity

Operator
Country
FIN
Launch date
2020-09-28
Launch site
PLMSC
Launch vehicle
Mass (kg)
RCS (m²)

External: N2YO · Heavens-Above · Gunter

§ Orbital elements

Epoch: 2026-09-20T05:11:45.951648Z

Period
95.69 min
Inclination
98.1050°
Eccentricity
0.0008152
Mean motion
15.04926760 rev/d
Perigee alt
546.1 km
Apogee alt
557.4 km
Semi-major
6,929.9 km
B*
1.4492e-4
RAAN
261.4965°
Arg perigee
125.1066°
Mean anomaly
235.0925°
Rev number
32,752

§ Raw data

ICEYE-X61 46497U 20068M   26263.21650407  .00001985  00000+0  14492-3 0  99952 46497  98.1050 261.4965 0008152 125.1066 235.0925 15.04926760327520

JSON: /api/v1/satellites/46497 · /tle

For live sub-satellite position, see the globe view (requires WebGL).

§ Visibility from observer

Set your observer location to see the next 7 days of passes ≥ 10°. The values pass through the URL so the page stays shareable.

No JS? Fill the form by hand. The geolocation button needs JavaScript.

§ Radio — SatNOGS DB

ModeDescriptionDownlinkUplink
FM S-band telemetry 2.264 GHz

1 transmitter · refreshed weekly from db.satnogs.org